• In Russia
  • List of Countries
  • For 7 days
  • Water Temperature
  • Weather Map
  • Weather Widgets
  • user-avatar
    Login

    Hourly Weather Tibissa

    Today, 27 May, Wednesday

    Time Temperature Precipitation Wind Pressure Humidity
    00:00 +19°C° 0 mm 2 mps 690 mmHg 58%
    01:00 +19°C° 0 mm 1 mps 689 mmHg 65%
    02:00 +19°C° 0 mm 1 mps 689 mmHg 67%
    03:00 +18°C° 0 mm 1 mps 689 mmHg 70%
    04:00 +18°C° 0 mm 1 mps 689 mmHg 72%
    05:00 +18°C° 0 mm 1 mps 689 mmHg 70%
    06:00 +19°C° 0 mm 1 mps 689 mmHg 68%
    07:00 +19°C° 0 mm 1 mps 689 mmHg 66%
    08:00 +20°C° 0 mm 1 mps 690 mmHg 59%
    09:00 +22°C° 0 mm 1 mps 690 mmHg 52%
    10:00 +23°C° 0 mm 2 mps 691 mmHg 45%
    11:00 +24°C° 0 mm 2 mps 691 mmHg 41%
    12:00 +25°C° 0 mm 2 mps 691 mmHg 37%
    13:00 +26°C° 0 mm 3 mps 690 mmHg 33%
    14:00 +26°C° 0.2 mm 3 mps 690 mmHg 35%
    15:00 +25°C° 0.2 mm 3 mps 690 mmHg 36%
    16:00 +25°C° 0.2 mm 3 mps 690 mmHg 38%
    17:00 +23°C° 0.1 mm 4 mps 690 mmHg 37%
    18:00 +23°C° 0.1 mm 4 mps 690 mmHg 36%
    19:00 +23°C° 0.1 mm 5 mps 690 mmHg 36%
    20:00 +21°C° 0.1 mm 5 mps 690 mmHg 40%
    21:00 +20°C° 0.1 mm 6 mps 691 mmHg 44%
    22:00 +19°C° 0.1 mm 6 mps 691 mmHg 48%
    23:00 +17°C° 0 mm 5 mps 691 mmHg 51%

    Tomorrow, 28 May, Thursday

    Time Temperature Precipitation Wind Pressure Humidity
    00:00 +17°C° 0 mm 4 mps 691 mmHg 54%
    01:00 +16°C° 0 mm 3 mps 690 mmHg 56%
    02:00 +15°C° 0 mm 2 mps 690 mmHg 57%
    03:00 +15°C° 0 mm 2 mps 690 mmHg 59%
    04:00 +15°C° 0 mm 1 mps 690 mmHg 60%
    05:00 +15°C° 0 mm 1 mps 690 mmHg 58%
    06:00 +16°C° 0 mm 1 mps 690 mmHg 57%
    07:00 +16°C° 0 mm 1 mps 690 mmHg 55%
    08:00 +18°C° 0 mm 1 mps 690 mmHg 51%
    09:00 +19°C° 0 mm 1 mps 691 mmHg 47%
    10:00 +20°C° 0 mm 1 mps 691 mmHg 43%
    11:00 +21°C° 0 mm 1 mps 691 mmHg 41%
    12:00 +21°C° 0 mm 2 mps 691 mmHg 39%
    13:00 +24°C° 0 mm 2 mps 690 mmHg 38%
    14:00 +24°C° 0.1 mm 2 mps 690 mmHg 38%
    15:00 +24°C° 0.1 mm 2 mps 690 mmHg 38%
    16:00 +25°C° 0.1 mm 2 mps 689 mmHg 38%
    17:00 +24°C° 0 mm 2 mps 689 mmHg 39%
    18:00 +24°C° 0 mm 2 mps 689 mmHg 40%
    19:00 +24°C° 0 mm 3 mps 689 mmHg 41%
    20:00 +22°C° 0 mm 3 mps 689 mmHg 43%
    21:00 +21°C° 0 mm 3 mps 689 mmHg 45%
    22:00 +20°C° 0 mm 3 mps 689 mmHg 47%
    23:00 +19°C° 0 mm 3 mps 689 mmHg 49%

    Day after tomorrow, 29 May, Friday

    Time Temperature Precipitation Wind Pressure Humidity
    00:00 +18°C° 0 mm 4 mps 689 mmHg 51%
    01:00 +18°C° 0 mm 4 mps 688 mmHg 53%
    02:00 +17°C° 0 mm 3 mps 688 mmHg 54%
    03:00 +17°C° 0 mm 3 mps 687 mmHg 55%
    04:00 +16°C° 0 mm 2 mps 687 mmHg 55%
    05:00 +17°C° 0 mm 2 mps 687 mmHg 52%
    06:00 +18°C° 0 mm 3 mps 687 mmHg 48%
    07:00 +19°C° 0 mm 3 mps 688 mmHg 44%
    08:00 +20°C° 0.1 mm 4 mps 688 mmHg 41%
    09:00 +22°C° 0.1 mm 5 mps 688 mmHg 39%
    10:00 +23°C° 0.1 mm 6 mps 688 mmHg 36%
    11:00 +23°C° 0 mm 6 mps 688 mmHg 38%
    12:00 +23°C° 0 mm 6 mps 688 mmHg 41%
    13:00 +23°C° 0 mm 6 mps 687 mmHg 43%
    14:00 +23°C° 0.2 mm 5 mps 687 mmHg 45%
    15:00 +23°C° 0.2 mm 5 mps 686 mmHg 47%
    16:00 +23°C° 0.2 mm 5 mps 686 mmHg 48%
    17:00 +22°C° 0.7 mm 5 mps 686 mmHg 50%
    18:00 +22°C° 0.7 mm 4 mps 685 mmHg 51%
    19:00 +21°C° 0.7 mm 4 mps 685 mmHg 52%
    20:00 +20°C° 0.2 mm 3 mps 685 mmHg 54%
    21:00 +20°C° 0.2 mm 2 mps 686 mmHg 55%
    22:00 +19°C° 0.2 mm 2 mps 686 mmHg 57%
    23:00 +20°C° 0 mm 1 mps 685 mmHg 58%

    30 May, Saturday

    Time Temperature Precipitation Wind Pressure Humidity
    00:00 +20°C° 0 mm 1 mps 685 mmHg 59%
    01:00 +19°C° 0 mm 1 mps 685 mmHg 60%
    02:00 +19°C° 0 mm 1 mps 685 mmHg 60%
    03:00 +19°C° 0 mm 1 mps 684 mmHg 61%
    04:00 +18°C° 0 mm 1 mps 684 mmHg 61%
    05:00 +19°C° 0.1 mm 1 mps 684 mmHg 57%
    06:00 +19°C° 0.1 mm 2 mps 685 mmHg 54%
    07:00 +20°C° 0.1 mm 2 mps 685 mmHg 50%
    08:00 +21°C° 0.1 mm 3 mps 685 mmHg 46%
    09:00 +24°C° 0.1 mm 3 mps 686 mmHg 42%
    10:00 +25°C° 0.1 mm 4 mps 686 mmHg 38%
    11:00 +26°C° 0 mm 5 mps 686 mmHg 36%
    12:00 +27°C° 0 mm 5 mps 685 mmHg 35%
    13:00 +28°C° 0 mm 5 mps 685 mmHg 33%
    14:00 +26°C° 1.6 mm 5 mps 685 mmHg 42%
    15:00 +23°C° 1.6 mm 5 mps 684 mmHg 51%
    16:00 +21°C° 1.6 mm 6 mps 683 mmHg 60%
    17:00 +21°C° 1.6 mm 5 mps 683 mmHg 62%
    18:00 +21°C° 1.6 mm 4 mps 683 mmHg 64%
    19:00 +20°C° 1.6 mm 4 mps 683 mmHg 66%
    20:00 +20°C° 1.6 mm 3 mps 683 mmHg 68%
    21:00 +19°C° 1.6 mm 3 mps 684 mmHg 69%
    22:00 +18°C° 1.6 mm 2 mps 684 mmHg 71%
    23:00 +18°C° 0.1 mm 2 mps 684 mmHg 71%

    31 May, Sunday

    Time Temperature Precipitation Wind Pressure Humidity
    00:00 +19°C° 0.1 mm 1 mps 684 mmHg 72%
    01:00 +19°C° 0.1 mm 1 mps 684 mmHg 72%
    02:00 +19°C° 0 mm 1 mps 684 mmHg 74%
    03:00 +19°C° 0 mm 1 mps 684 mmHg 75%
    04:00 +18°C° 0 mm 1 mps 684 mmHg 77%
    05:00 +18°C° 0 mm 1 mps 684 mmHg 76%
    06:00 +18°C° 0 mm 2 mps 684 mmHg 75%
    07:00 +18°C° 0 mm 2 mps 685 mmHg 74%
    08:00 +19°C° 0 mm 2 mps 685 mmHg 68%
    09:00 +20°C° 0 mm 3 mps 685 mmHg 62%
    10:00 +20°C° 0 mm 3 mps 686 mmHg 57%
    11:00 +22°C° 0 mm 3 mps 686 mmHg 51%
    12:00 +24°C° 0 mm 3 mps 686 mmHg 45%
    13:00 +25°C° 0 mm 3 mps 686 mmHg 39%
    14:00 +25°C° 0 mm 3 mps 686 mmHg 38%
    15:00 +26°C° 0 mm 3 mps 686 mmHg 36%
    16:00 +26°C° 0 mm 4 mps 686 mmHg 34%
    17:00 +26°C° 0 mm 4 mps 685 mmHg 36%
    18:00 +25°C° 0 mm 4 mps 685 mmHg 37%
    19:00 +25°C° 0 mm 4 mps 685 mmHg 39%
    20:00 +23°C° 0 mm 4 mps 686 mmHg 47%
    21:00 +21°C° 0 mm 4 mps 686 mmHg 56%
    22:00 +20°C° 0 mm 4 mps 686 mmHg 64%
    23:00 +20°C° 0 mm 3 mps 686 mmHg 68%

    1 June, Monday

    Time Temperature Precipitation Wind Pressure Humidity
    00:00 +19°C° 0 mm 3 mps 686 mmHg 72%
    01:00 +19°C° 0 mm 2 mps 685 mmHg 76%
    02:00 +18°C° 0 mm 2 mps 685 mmHg 78%
    03:00 +19°C° 0 mm 1 mps 685 mmHg 80%
    04:00 +19°C° 0 mm 1 mps 685 mmHg 82%
    05:00 +19°C° 0 mm 1 mps 685 mmHg 79%
    06:00 +19°C° 0 mm 1 mps 685 mmHg 76%
    07:00 +19°C° 0 mm 2 mps 685 mmHg 74%
    08:00 +20°C° 0 mm 2 mps 686 mmHg 66%
    09:00 +22°C° 0 mm 3 mps 686 mmHg 59%
    10:00 +25°C° 0 mm 4 mps 686 mmHg 51%
    11:00 +25°C° 0 mm 4 mps 686 mmHg 47%
    12:00 +26°C° 0 mm 5 mps 686 mmHg 43%
    13:00 +27°C° 0 mm 5 mps 686 mmHg 39%
    14:00 +27°C° 0.1 mm 6 mps 686 mmHg 37%
    15:00 +28°C° 0.1 mm 6 mps 686 mmHg 34%
    16:00 +28°C° 0.1 mm 6 mps 685 mmHg 32%
    17:00 +27°C° 0 mm 6 mps 685 mmHg 35%
    18:00 +26°C° 0 mm 6 mps 685 mmHg 38%
    19:00 +24°C° 0 mm 6 mps 685 mmHg 41%
    20:00 +23°C° 0 mm 5 mps 685 mmHg 45%
    21:00 +21°C° 0 mm 4 mps 685 mmHg 49%
    22:00 +20°C° 0 mm 3 mps 686 mmHg 54%
    23:00 +19°C° 0 mm 3 mps 685 mmHg 55%
    Show more